Regional Weather Roundup
Issued by NWS

Home | Current Version | Previous Version | Text Only | Print | Product List | Glossary Off
Versions: 1 2 3 4 5 6 7 8 9 10 11 12 13 14 15 16 17 18 19 20 21 22 23 24 25 26 27

000
ASUS45 KSLC 271810
RWRUT

UTAH REGIONAL WEATHER ROUNDUP
NATIONAL WEATHER SERVICE SALT LAKE CITY UT
1200 PM MDT TUE SEP 27 2016

UTZ001>011-023>025-271900-

NORTHERN UTAH

CITY           SKY/WX    TMP DP  RH WIND       PRES   REMARKS
BRIGHAM CITY     N/A     66  47  50 CALM      30.23F
DUGWAY         SUNNY     66  52  59 W3        30.23
HILL AFB       SUNNY     66  46  46 W3        30.23F
LOGAN          SUNNY     64  48  56 CALM      30.23F
OGDEN          SUNNY     68  48  48 N5        30.22F
PROVO AIRPORT  SUNNY     64  50  60 W6        30.23F
SALT LAKE CITY MOSUNNY   70  48  45 CALM      30.21F
VERNAL         SUNNY     62  46  55 CALM      30.29F
WENDOVER       SUNNY     64  45  48 E9        30.22F
HEBER CITY     SUNNY     61  43  51 CALM      30.26F
WEST JORDAN    SUNNY     68  45  42 CALM      30.23F

$$

UTZ012>022-026-027-271900-

SOUTHERN/CENTRAL UTAH

CITY           SKY/WX    TMP DP  RH WIND       PRES   REMARKS
BLANDING       SUNNY     68  31  25 SE7       30.39F
BRYCE CANYON   SUNNY     64  32  30 SE9       30.38F
CEDAR CITY     SUNNY     68  34  28 CALM      30.25F
DELTA          SUNNY     68  41  37 N3        30.23F
MILFORD        SUNNY     71  40  32 CALM      30.23F
MOAB/CYNLANDS  NOT AVBL
PRICE          SUNNY     65  40  39 SE6       30.30F
ST GEORGE      CLEAR     75  39  27 CALM      30.14F

$$

REGIONAL REPORTS     COLORADO/ARIZONA

CITY           SKY/WX    TMP DP  RH WIND       PRES   REMARKS
CRAIG, CO      SUNNY     66  36  32 CALM      30.32F
GRAND JUNCTION SUNNY     70  37  29 S6        30.25F
RIFLE          SUNNY     65  37  35 CALM      30.28F
MONTROSE       SUNNY     67  39  35 N5        30.29F
CORTEZ         SUNNY     70  34  26 SW8       30.31F
PAGE, AZ       SUNNY     71  37  28 N6        30.22F
GRAND CANYON   CLOUDY    66  36  32 NE9       30.33S
KINGMAN        CLOUDY    70  44  39 E18G26    30.15S
FLAGSTAFF      CLOUDY    55  45  68 E7        30.34F

$$

REGIONAL REPORTS    NEVADA/IDAHO/WYOMING

CITY           SKY/WX    TMP DP  RH WIND       PRES   REMARKS
LAS VEGAS, NV  MOSUNNY   84  33  16 VRB6      30.05F
ELY            SUNNY     70  33  25 NE3       30.29F
ELKO           SUNNY     69  39  33 NE5       30.22F
POCATELLO, ID  SUNNY     68  45  43 CALM      30.23F
BURLEY         SUNNY     67  49  52 NE7       30.17F
EVANSTON, WY   SUNNY     64  37  36 NW5       30.35F
ROCK SPRINGS   SUNNY     61  41  47 CALM      30.34F

$$




USA.gov is the U.S. government's official web portal to all federal, state and local government web resources and services.